sat.trackr.live / text

‹ back to catalog

ONEWEB-0200

NORAD 48244 · 2021-031AL

PAYLOAD ACTIVE UNKNOWN

§ Identity

Operator
Country
UK
Launch date
2021-04-25
Launch site
VOSTO
Launch vehicle
Mass (kg)
RCS (m²)

Purposes: comms

External: N2YO · Heavens-Above · Gunter

§ Orbital elements

Epoch: 2026-05-25T03:15:41.620896Z

Period
109.55 min
Inclination
87.8940°
Eccentricity
0.0001773
Mean motion
13.14501687 rev/d
Perigee alt
1,204.5 km
Apogee alt
1,207.1 km
Semi-major
7,583.9 km
B*
-5.8386e-4
RAAN
294.2885°
Arg perigee
101.4737°
Mean anomaly
258.6592°
Rev number
24,520

§ Raw data

ONEWEB-02001 48244U 21031AL  26145.13589839 -.00000204  00000+0 -58386-3 0  99932 48244  87.8940 294.2885 0001773 101.4737 258.6592 13.14501687245205

JSON: /api/v1/satellites/48244 · /tle

For live sub-satellite position, see the globe view (requires WebGL).

§ Visibility from observer

Set your observer location to see the next 7 days of passes ≥ 10°. The values pass through the URL so the page stays shareable.

No JS? Fill the form by hand. The geolocation button needs JavaScript.